Regional Weather Roundup
Issued by NWS Newport/Morehead, NC

Current Version | Previous Version | Text Only | Print | Product List | Glossary On
Versions: 1 2 3 4 5 6 7 8 9 10 11 12 13 14 15 16 17 18 19 20 21 22 23 24 25 26 27 28 29 30 31 32 33 34 35 36 37 38 39 40 41 42 43 44 45 46 47 48 49 50
000
ASUS42 KMHX 271622
RWRMHX
WEATHER ROUNDUP FOR EASTERN NORTH CAROLINA
NATIONAL WEATHER SERVICE NEWPORT/MOREHEAD CITY NC
1200 PM EDT WED AUG 27 2014

NOTE: "FAIR" INDICATES FEW OR NO CLOUDS BELOW 12,000 FEET
WITH NO SIGNIFICANT WEATHER AND/OR OBSTRUCTIONS TO VISIBILITY

NCZ015>017-031-032-045>047-102-103-271700-
NORTH COAST

CITY           SKY/WX    TMP DP  RH WIND       PRES   REMARKS
EDENTON        MOSUNNY   81  69  66 NE7       30.02S
ELIZABETH CITY PTSUNNY   81  71  71 N13       30.02F
KITTY HAWK     SUNNY     79  72  79 N12G18    29.99F
MANTEO         MOSUNNY   80  72  78 N14G21    29.99F

$$

NCZ045>047-081-094-103-104-271700-
CENTRAL COAST

CITY           SKY/WX    TMP DP  RH WIND       PRES   REMARKS
FRISCO         PTSUNNY   80  75  84 NE12G23   29.96F
SWANQUARTER      N/A     82 N/A N/A NE10G17   29.94F

$$

NCZ095-097-098-100-101-271700-
SOUTHERN COAST

CITY           SKY/WX    TMP DP  RH WIND       PRES   REMARKS
BEAUFORT       PTSUNNY   83  73  72 N15       29.97F
CEDAR ISLAND     N/A     81 N/A N/A N14       30.00F
JACKSONVILLE   SUNNY     82  69  64 NE14G20   30.00F
NEWPORT        NOT AVBL
PINEY ISLAND   MOSUNNY   83  74  74 N16       29.98F
WILMINGTON     SUNNY     82  68  62 N9        30.00F


$$

NCZ011>013-027>030-043-044-078>080-089-090>093-098-271700-
COASTAL PLAIN

CITY           SKY/WX    TMP DP  RH WIND       PRES   REMARKS
AHOSKIE        MOSUNNY   78  67  68 N9        30.04F
CLINTON        SUNNY     80  65  61 NE6       30.04F
ELIZABETHTOWN  SUNNY     82  63  52 CALM      30.04S
GOLDSBORO      SUNNY     78  70  75 N8        30.02F
GREENVILLE     SUNNY     79  68  69 N9        30.05F
HAVELOCK       PTSUNNY   81  70  69 N14       30.01S
KENANSVILLE    SUNNY     79  64  59 N10       30.04F
KINSTON        SUNNY     79  68  69 N12       30.04F
NEW BERN       MOSUNNY   82  70  66 N12G18    30.02S
RICHLANDS      MOSUNNY   82  66  57 N9        30.02S
ROANOKE RAPIDS NOT AVBL
ROCKY MOUNT    SUNNY     78  63  59 N8        30.05F
WASHINGTON     MOSUNNY   80  69  70 N8        30.02F
WHITEVILLE     SUNNY     81  64  56 N6        30.02F

$$

AMZ130-135-150-152-154-156-158-170-250-252-270-ANZ085-086-088-633-658-670-271700-
MARINE OBSERVATIONS

STATION/POSITION TIME  TEMP    WIND        PRES    WAVE   SWELL
                       AIR SEA DIR/SP/G            HT/PER HT/PER
                 (UTC) (F)     (DEG/KT/KT) (MB)    (FT/S) (FT/S)
CHESAPEAKE LIGHT 1600   73      30/ 15/ 17 1017.4
BUOY 44014       1600   77 78   40/ 16/ 17 1015.5    7/11   5/11
DUCK             1600   74 76   10/ 18/ 20 1015.4
2E DUCK          1600                        N/A     5/13   2/13
OREGON INLET     1600   79 77  360/ 12/ 17 1015.2
BUOY 44095       1600      76                N/A     7/10   3/17
20E OREGON INLET NOT AVBL
HATTERAS CG      1600   77 78   20/ 20/ 24 1014.8
DIAMOND BUOY     1600   78      10/ 21/ 27 1012.9   10/15   7/15
CAPE LOOKOUT     1600   80      10/ 16/ 19 1014.5
BEAUFORT LAB     1600   79 78   10/ 14/ 20 1014.6
30 SE NEW RIVER  1600   77 80   10/ 19/ 23 1014.8    7/14   3/14
5 SE WRIGHTSVILL 1600   74 81  360/ 12/ 14   N/A
BUOY 41002       1527   80 81  350/ 23/ 27 1008.5   13/10
BUOY 41004       1600   78 83   10/ 16/ 19 1015.2    6/ 8   5/ 8

$$


USA.gov is the U.S. government's official web portal to all federal, state and local government web resources and services.